Regional Weather Roundup
Issued by NWS Lake Charles, LA

Home | Current Version | Previous Version | Text Only | Print | Product List | Glossary On
Versions: 1 2 3 4 5 6 7 8 9 10 11 12 13 14 15 16 17 18 19 20 21 22 23 24 25 26 27 28 29 30 31 32 33 34 35 36 37 38 39 40 41 42 43 44 45 46 47 48 49
000
ASUS44 KLCH 122110
RWRLCH
RWRLCH
REGIONAL WEATHER ROUNDUP
NATIONAL WEATHER SERVICE LAKE CHARLES LA
400 PM CDT SAT JUL 12 2014

Note: "fair" indicates few or no clouds below 12,000 feet with no
significant weather and/or obstructions to visibility.


ACROSS SOUTHEAST TEXAS

CITY           SKY/WX    TMP DP  RH WIND       PRES   REMARKS
BEAUMONT       MOSUNNY   90  73  57 SW10      30.08F
BEAUMONT CITY    N/A     89  73  60 S8        30.09F
ORANGE         CLEAR     92  71  48 W7        30.08F
JASPER         PTSUNNY   80  75  84 NW6       30.13F
$$

ACROSS CENTRAL LOUISIANA

CITY           SKY/WX    TMP DP  RH WIND       PRES   REMARKS
LEESVILLE      MOSUNNY   88  70  55 SW6       30.08F
FULLERTON        N/A     87  72  60 VRB5      30.07S THUNDER
ALEXANDRIA INT PTSUNNY   83  70  64 E22G35    30.10R THUNDER
ESLER FIELD    PTSUNNY   86  71  60 VRB7      30.10S
DERIDDER         N/A     94  70  45 CALM      30.10F
OAKDALE        MOCLDY    83  75  78 E7        30.10S THUNDER
OPELOUSAS        N/A     78  73  84 NW6       30.10F
$$

ACROSS SOUTHWEST AND SOUTH CENTRAL LOUISIANA

CITY           SKY/WX    TMP DP  RH WIND       PRES   REMARKS
SULPHUR        PTCLDY    93  73  50 SW7       30.08F HX 101
LAKE CHARLES   CLOUDY    89  73  59 SW9       30.07F
CHENNAULT INT  MOSUNNY   93  70  46 CALM      30.08F
CAMERON PHI    CLEAR     88  75  66 SW10      30.09F
DEQUINCY       CLOUDY    89  76  64 CALM      30.08F HX 100
JENNINGS         N/A     90  75  61 E13G22    30.08S
LAFAYETTE      PTSUNNY   82  74  76 W3        30.09F
NEW IBERIA     MOSUNNY   85  72  65 NW6       30.09F
ABBEVILLE      LGT RAIN  77  73  87 NW8       30.08F
PATTERSON      MOSUNNY   91  73  55 NE7       30.13F HX 100
SALT POINT       N/A     92  75  57 VRB5      30.08F HX 103
$$

SELECTED SITES ACROSS THE REGION

CITY           SKY/WX    TMP DP  RH WIND       PRES   REMARKS
HOUSTON BUSH   PTSUNNY   93  70  46 CALM      30.09F
HOUSTON HOBBY  PTSUNNY   93  70  46 CALM      30.09F
GALVESTON      MOSUNNY   91  72  53 SE9       30.11F
COLLEGE STAT   MOSUNNY   94  65  38 SE7       30.10F
CONROE         MOSUNNY   92  71  50 SE6       30.11F
HUNTSVILLE     SUNNY     94  67  41 VRB3      30.11F
LUFKIN         SUNNY     98  68  37 SW5       30.09F HX 103
SHREVEPORT     PTSUNNY   96  71  44 VRB7      30.07F HX 103
MONROE         MOSUNNY   91  74  57 E9        30.10F HX 100
NATCHEZ MS     SUNNY     90  72  55 N7        30.11F
BATON ROUGE    SUNNY     92  71  50 NE5       30.09F
N.O. INTL ARPT MOSUNNY   91  71  51 NE3       30.08F
SLIDELL        PTSUNNY   88  74  63 S12       30.06F
$$

MARINE REPORTS

STATION/POSITION TIME  TEMP    WIND        PRES    VSBY  WAVE
                       AIR SEA DIR/SP/G                  HT/PER
                 (UTC) (F)     (DEG/KT/KT) (MB)    (MI)  (FT/S)
BUOY 30 S HIGH I 2000   84 88  130/  2/  4 1020.3
SEA RIM ST PARK  2100   86     230/  9/ 11 1019.3F
PORT ARTHUR      2100      88  220/  9/ 12 1018.9F
SABINE PASS N    2100   89 89  220/  7/ 11 1019.0F
TEXAS POINT      2100   86 87  220/ 10/ 13 1019.2F
CALCASIEU PASS   2100   86 88  250/  8/ 11 1020.0F
LK CHARLES BEACH 2100   93 87              1019.1F
MARSH ISLAND     NOT AVBL
FRESH WATER LOCK 2100   86 90  190/  6/  9 1018.9S
AMERADA PASS     2100   89 87  100/  3/  5 1018.9F
$$



USA.gov is the U.S. government's official web portal to all federal, state and local government web resources and services.